time, Switch, Flow(0), Analog(2)
yyyy/mm/dd HH:MM:SS.fff, True=FILTERED|False=TOTAL, L/min, V
2023/07/01 06:00:02.477, True, 4.312, 0.129931
2023/07/01 06:00:02.981, True, 4.309, 0.130770
2023/07/01 06:00:03.477, True, 4.386, 0.131380
2023/07/01 06:00:03.981, True, 3.643, 0.129931
2023/07/01 06:00:04.477, True, 2.359, 0.129320
2023/07/01 06:00:04.981, True, 1.658, 0.128176
2023/07/01 06:00:05.485, True, 0.995, 0.129397
2023/07/01 06:00:05.981, True, 1.348, 0.129091
2023/07/01 06:00:06.485, True, 0.995, 0.129168
2023/07/01 06:00:06.989, True, 0.995, 0.130083
2023/07/01 06:00:07.485, True, 0.674, 0.130999
2023/07/01 06:00:07.989, True, 0.996, 0.130846
2023/07/01 06:00:08.492, True, 0.993, 0.130694
2023/07/01 06:00:08.988, True, 1.011, 0.129549
2023/07/01 06:00:09.493, True, 0.995, 0.130007
2023/07/01 06:00:09.997, True, 0.995, 0.130312
2023/07/01 06:00:10.493, True, 1.011, 0.128939
2023/07/01 06:00:10.997, True, 0.995, 0.129244
2023/07/01 06:00:11.501, True, 0.994, 0.130159
2023/07/01 06:00:11.997, True, 1.011, 0.128786
2023/07/01 06:00:12.501, True, 0.995, 0.130617
2023/07/01 06:00:13.005, True, 0.995, 0.130388
2023/07/01 06:00:13.509, True, 0.995, 0.129778
2023/07/01 06:00:14.005, True, 1.011, 0.129702
2023/07/01 06:00:14.509, True, 1.327, 0.128939
2023/07/01 06:00:15.013, True, 0.995, 0.128328
2023/07/01 06:00:15.509, True, 1.011, 0.130159
2023/07/01 06:00:16.013, True, 0.995, 0.129244
2023/07/01 06:00:16.509, True, 1.011, 0.129244
2023/07/01 06:00:17.013, True, 0.995, 0.131075
2023/07/01 06:00:17.517, True, 0.996, 0.129702
2023/07/01 06:00:18.012, True, 1.346, 0.128405
2023/07/01 06:00:18.517, True, 0.995, 0.130617
2023/07/01 06:00:19.021, True, 0.995, 0.129244
2023/07/01 06:00:19.517, True, 1.011, 0.130007
2023/07/01 06:00:20.021, True, 0.995, 0.129473
2023/07/01 06:00:20.525, True, 1.327, 0.128634
2023/07/01 06:00:21.021, True, 1.011, 0.130465
2023/07/01 06:00:21.525, True, 0.996, 0.128099
2023/07/01 06:00:22.029, True, 0.995, 0.130922
2023/07/01 06:00:22.525, True, 1.010, 0.128939
2023/07/01 06:00:23.029, True, 1.326, 0.128481
2023/07/01 06:00:23.532, True, 0.996, 0.128099
2023/07/01 06:00:24.029, True, 1.010, 0.129778
2023/07/01 06:00:24.533, True, 0.994, 0.128481
2023/07/01 06:00:25.029, True, 1.348, 0.130922
2023/07/01 06:00:25.533, True, 0.995, 0.130922
2023/07/01 06:00:26.037, True, 0.995, 0.130541
2023/07/01 06:00:26.533, True, 1.011, 0.129015
2023/07/01 06:00:27.037, True, 1.326, 0.130922
2023/07/01 06:00:27.540, True, 0.995, 0.130007
2023/07/01 06:00:28.037, True, 1.011, 0.128405
2023/07/01 06:00:28.541, True, 0.995, 0.129091
2023/07/01 06:00:29.044, True, 0.995, 0.129625
2023/07/01 06:00:29.549, True, 0.995, 0.129015
2023/07/01 06:00:30.045, True, 1.011, 0.129015
2023/07/01 06:00:30.549, True, 0.994, 0.129854
2023/07/01 06:00:31.053, True, 0.995, 0.130159
2023/07/01 06:00:31.549, True, 1.011, 0.128634
2023/07/01 06:00:32.053, True, 0.994, 0.129778
2023/07/01 06:00:32.556, True, 1.327, 0.129854
2023/07/01 06:00:33.053, True, 1.011, 0.131151
2023/07/01 06:00:33.557, True, 0.994, 0.131533
2023/07/01 06:00:34.061, True, 0.995, 0.129702
2023/07/01 06:00:34.557, True, 1.010, 0.127718
2023/07/01 06:00:35.060, True, 0.995, 0.130007
2023/07/01 06:00:35.557, True, 1.011, 0.128176
2023/07/01 06:00:36.061, True, 0.995, 0.128405
2023/07/01 06:00:36.564, True, 1.326, 0.128939
2023/07/01 06:00:37.061, True, 1.011, 0.127947
2023/07/01 06:00:37.564, True, 0.995, 0.130465
2023/07/01 06:00:38.068, True, 0.995, 0.129473
2023/07/01 06:00:38.573, True, 0.995, 0.131151
2023/07/01 06:00:39.069, True, 1.011, 0.129320
2023/07/01 06:00:39.572, True, 1.326, 0.129473
2023/07/01 06:00:40.068, True, 1.011, 0.129702
2023/07/01 06:00:40.573, True, 0.663, 0.129320
2023/07/01 06:00:41.076, True, 1.326, 0.129397
2023/07/01 06:00:41.572, True, 1.011, 0.128557
2023/07/01 06:00:42.077, True, 0.995, 0.126268
2023/07/01 06:00:42.581, True, 0.996, 0.130770
2023/07/01 06:00:43.077, True, 1.010, 0.130999
2023/07/01 06:00:43.581, True, 0.995, 0.129625
2023/07/01 06:00:44.085, True, 1.326, 0.130846
2023/07/01 06:00:44.581, True, 1.011, 0.130388
2023/07/01 06:00:45.085, True, 0.995, 0.129397
2023/07/01 06:00:45.589, True, 0.995, 0.130083
2023/07/01 06:00:46.085, True, 1.011, 0.131380
2023/07/01 06:00:46.589, True, 0.995, 0.131838
2023/07/01 06:00:47.093, True, 0.995, 0.129244
2023/07/01 06:00:47.588, True, 1.011, 0.130312
2023/07/01 06:00:48.093, True, 0.995, 0.126726
2023/07/01 06:00:48.597, True, 0.995, 0.129397
2023/07/01 06:00:49.093, True, 1.011, 0.130236
2023/07/01 06:00:49.597, True, 0.997, 0.130846
2023/07/01 06:00:50.101, True, 0.993, 0.131838
2023/07/01 06:00:50.597, True, 1.011, 0.128099
2023/07/01 06:00:51.101, True, 0.995, 0.130236
2023/07/01 06:00:51.605, True, 0.995, 0.130999
2023/07/01 06:00:52.101, True, 1.011, 0.130541
2023/07/01 06:00:52.605, True, 0.995, 0.130846
2023/07/01 06:00:53.109, True, 1.326, 0.131075
2023/07/01 06:00:53.605, True, 1.011, 0.130083
2023/07/01 06:00:54.109, True, 0.995, 0.129778
2023/07/01 06:00:54.613, True, 0.995, 0.128786
2023/07/01 06:00:55.109, True, 1.011, 0.130999
2023/07/01 06:00:55.613, True, 0.995, 0.132219
2023/07/01 06:00:56.116, True, 0.995, 0.129015
2023/07/01 06:00:56.613, True, 1.011, 0.130236
2023/07/01 06:00:57.117, True, 0.995, 0.132143
2023/07/01 06:00:57.621, True, 1.327, 0.130770
2023/07/01 06:00:58.116, True, 0.674, 0.129168
2023/07/01 06:00:58.621, True, 0.995, 0.130846
2023/07/01 06:00:59.117, True, 1.011, 0.130541
2023/07/01 06:00:59.620, True, 1.326, 0.131456
2023/07/01 06:01:00.125, True, 0.995, 0.132296
2023/07/01 06:01:00.621, True, 1.011, 0.128939
2023/07/01 06:01:01.125, True, 0.995, 0.133059
2023/07/01 06:01:01.629, True, 0.995, 0.131762
2023/07/01 06:01:02.133, True, 0.995, 0.130541
2023/07/01 06:01:02.629, True, 1.011, 0.131685
2023/07/01 06:01:03.133, True, 0.995, 0.131609
2023/07/01 06:01:03.637, True, 0.995, 0.133059
2023/07/01 06:01:04.133, True, 1.011, 0.133822
2023/07/01 06:01:04.637, True, 0.995, 0.132601
2023/07/01 06:01:05.141, True, 1.326, 0.132677
2023/07/01 06:01:05.637, True, 1.012, 0.132143
2023/07/01 06:01:06.141, True, 0.993, 0.133364
2023/07/01 06:01:06.645, True, 0.995, 0.133516
2023/07/01 06:01:07.141, True, 1.011, 0.132525
2023/07/01 06:01:07.645, True, 1.326, 0.134127
2023/07/01 06:01:08.149, True, 0.995, 0.132525
2023/07/01 06:01:08.644, True, 1.011, 0.133822
2023/07/01 06:01:09.149, True, 0.995, 0.135805
2023/07/01 06:01:09.653, True, 0.995, 0.132982
2023/07/01 06:01:10.149, True, 1.011, 0.133288
2023/07/01 06:01:10.653, True, 0.995, 0.133364
2023/07/01 06:01:11.157, True, 0.995, 0.133059
2023/07/01 06:01:11.653, True, 1.011, 0.136492
2023/07/01 06:01:12.157, True, 0.995, 0.136568
2023/07/01 06:01:12.661, True, 0.995, 0.132982
2023/07/01 06:01:13.165, True, 1.326, 0.134661
2023/07/01 06:01:13.661, True, 1.011, 0.133593
2023/07/01 06:01:14.164, True, 0.995, 0.133822
2023/07/01 06:01:14.669, True, 0.995, 0.134508
2023/07/01 06:01:15.165, True, 1.011, 0.134890
2023/07/01 06:01:15.669, True, 0.995, 0.134127
2023/07/01 06:01:16.173, True, 0.995, 0.136263
2023/07/01 06:01:16.669, True, 1.011, 0.136568
2023/07/01 06:01:17.172, True, 1.326, 0.135042
2023/07/01 06:01:17.677, True, 0.995, 0.133974
2023/07/01 06:01:18.172, True, 1.012, 0.134890
2023/07/01 06:01:18.676, True, 0.994, 0.134356
2023/07/01 06:01:19.180, True, 0.995, 0.135119
2023/07/01 06:01:19.677, True, 1.011, 0.136034
2023/07/01 06:01:20.180, True, 0.995, 0.132067
2023/07/01 06:01:20.685, True, 0.995, 0.135348
2023/07/01 06:01:21.181, True, 1.348, 0.134356
2023/07/01 06:01:21.685, True, 0.995, 0.136416
2023/07/01 06:01:22.189, True, 0.995, 0.135424
2023/07/01 06:01:22.685, True, 1.011, 0.136492
2023/07/01 06:01:23.189, True, 0.995, 0.137102
2023/07/01 06:01:23.693, True, 0.995, 0.134356
2023/07/01 06:01:24.196, True, 1.326, 0.136110
2023/07/01 06:01:24.693, True, 1.011, 0.137636
2023/07/01 06:01:25.197, True, 0.996, 0.135424
2023/07/01 06:01:25.700, True, 0.994, 0.134279
2023/07/01 06:01:26.196, True, 0.674, 0.138018
2023/07/01 06:01:26.701, True, 0.996, 0.135958
2023/07/01 06:01:27.205, True, 1.325, 0.136263
2023/07/01 06:01:27.701, True, 1.011, 0.137026
2023/07/01 06:01:28.205, True, 0.996, 0.137179
2023/07/01 06:01:28.708, True, 0.995, 0.135424
2023/07/01 06:01:29.205, True, 1.011, 0.133745
2023/07/01 06:01:29.708, True, 0.995, 0.137255
2023/07/01 06:01:30.213, True, 1.326, 0.138170
2023/07/01 06:01:30.709, True, 1.011, 0.137484
2023/07/01 06:01:31.213, True, 0.994, 0.135882
2023/07/01 06:01:31.717, True, 0.995, 0.135500
2023/07/01 06:01:32.221, True, 0.995, 0.136950
2023/07/01 06:01:32.717, True, 1.346, 0.136339
2023/07/01 06:01:33.221, True, 0.995, 0.138705
2023/07/01 06:01:33.725, True, 0.996, 0.135500
2023/07/01 06:01:34.221, True, 1.009, 0.137026
2023/07/01 06:01:34.725, True, 0.995, 0.137179
2023/07/01 06:01:35.229, True, 0.995, 0.136110
2023/07/01 06:01:35.725, True, 1.011, 0.135882
2023/07/01 06:01:36.229, True, 0.995, 0.136187
2023/07/01 06:01:36.733, True, 1.326, 0.136339
2023/07/01 06:01:37.229, True, 1.011, 0.135500
2023/07/01 06:01:37.733, True, 0.995, 0.138170
2023/07/01 06:01:38.237, True, 0.996, 0.138628
2023/07/01 06:01:38.733, True, 1.009, 0.135729
2023/07/01 06:01:39.237, True, 1.326, 0.136263
2023/07/01 06:01:39.741, True, 0.996, 0.134508
2023/07/01 06:01:40.237, True, 1.010, 0.138552
2023/07/01 06:01:40.741, True, 0.995, 0.137102
2023/07/01 06:01:41.245, True, 0.995, 0.138247
2023/07/01 06:01:41.741, True, 1.011, 0.135271
2023/07/01 06:01:42.245, True, 0.995, 0.136187
2023/07/01 06:01:42.741, True, 1.011, 0.134203
2023/07/01 06:01:43.244, True, 0.996, 0.136263
2023/07/01 06:01:43.749, True, 0.993, 0.134813
2023/07/01 06:01:44.245, True, 1.348, 0.136187
2023/07/01 06:01:44.749, True, 0.995, 0.136263
2023/07/01 06:01:45.245, True, 1.011, 0.136263
2023/07/01 06:01:45.749, True, 0.995, 0.138018
2023/07/01 06:01:46.253, True, 0.995, 0.137636
2023/07/01 06:01:46.749, True, 1.011, 0.135958
2023/07/01 06:01:47.253, True, 0.995, 0.136492
2023/07/01 06:01:47.757, True, 0.995, 0.136263
2023/07/01 06:01:48.253, True, 1.011, 0.138094
2023/07/01 06:01:48.757, True, 0.995, 0.136187
2023/07/01 06:01:49.261, True, 0.995, 0.137102
2023/07/01 06:01:49.757, True, 1.012, 0.135882
2023/07/01 06:01:50.261, True, 0.994, 0.137865
2023/07/01 06:01:50.765, True, 0.995, 0.138323
2023/07/01 06:01:51.261, True, 1.348, 0.135348
2023/07/01 06:01:51.765, True, 0.995, 0.138170
2023/07/01 06:01:52.269, True, 0.995, 0.138247
2023/07/01 06:01:52.765, True, 1.011, 0.135729
2023/07/01 06:01:53.268, True, 0.995, 0.137331
2023/07/01 06:01:53.773, True, 0.995, 0.136339
2023/07/01 06:01:54.269, True, 1.011, 0.135653
2023/07/01 06:01:54.773, True, 0.996, 0.136263
2023/07/01 06:01:55.277, True, 1.325, 0.137331
2023/07/01 06:01:55.773, True, 1.012, 0.135805
2023/07/01 06:01:56.277, True, 0.994, 0.139162
2023/07/01 06:01:56.781, True, 1.326, 0.136797
2023/07/01 06:01:57.277, True, 1.011, 0.135042
2023/07/01 06:01:57.781, True, 0.994, 0.135500
2023/07/01 06:01:58.285, True, 0.995, 0.136568
2023/07/01 06:01:58.780, True, 1.011, 0.137865
2023/07/01 06:01:59.284, True, 0.995, 0.136110
2023/07/01 06:01:59.789, True, 0.995, 0.135958
2023/07/01 06:02:00.285, True, 1.011, 0.137102
2023/07/01 06:02:00.789, True, 0.994, 0.139162
2023/07/01 06:02:01.285, True, 1.011, 0.136645
2023/07/01 06:02:01.789, True, 1.326, 0.138170
2023/07/01 06:02:02.293, True, 0.995, 0.136416
2023/07/01 06:02:02.789, True, 1.011, 0.136797
2023/07/01 06:02:03.293, True, 0.995, 0.136950
2023/07/01 06:02:03.797, True, 0.995, 0.137789
2023/07/01 06:02:04.293, True, 1.011, 0.138628
2023/07/01 06:02:04.797, True, 1.326, 0.136873
2023/07/01 06:02:05.293, True, 1.011, 0.137942
2023/07/01 06:02:05.797, True, 0.995, 0.136950
2023/07/01 06:02:06.301, True, 0.995, 0.138247
2023/07/01 06:02:06.797, True, 1.010, 0.137102
2023/07/01 06:02:07.301, True, 0.995, 0.138705
2023/07/01 06:02:07.804, True, 0.995, 0.137255
2023/07/01 06:02:08.301, True, 1.348, 0.135882
2023/07/01 06:02:08.805, True, 0.996, 0.137789
2023/07/01 06:02:09.309, True, 0.994, 0.136416
2023/07/01 06:02:09.805, True, 1.011, 0.135882
2023/07/01 06:02:10.309, True, 0.995, 0.137026
2023/07/01 06:02:10.813, True, 1.327, 0.137484
2023/07/01 06:02:11.309, True, 1.011, 0.136034
2023/07/01 06:02:11.812, True, 0.995, 0.136339
2023/07/01 06:02:12.316, True, 0.995, 0.137865
2023/07/01 06:02:12.813, True, 1.011, 0.134661
2023/07/01 06:02:13.316, True, 0.995, 0.137331
2023/07/01 06:02:13.821, True, 1.326, 0.137026
2023/07/01 06:02:14.317, True, 1.011, 0.138170
2023/07/01 06:02:14.821, True, 0.995, 0.135042
2023/07/01 06:02:15.325, True, 0.995, 0.138018
2023/07/01 06:02:15.821, True, 1.347, 0.137179
2023/07/01 06:02:16.325, True, 0.995, 0.139925
2023/07/01 06:02:16.828, True, 0.996, 0.138628
2023/07/01 06:02:17.325, True, 1.010, 0.138552
2023/07/01 06:02:17.829, True, 0.995, 0.136034
2023/07/01 06:02:18.333, True, 0.995, 0.136873
2023/07/01 06:02:18.829, True, 1.011, 0.138247
2023/07/01 06:02:19.333, True, 0.995, 0.137179
2023/07/01 06:02:19.836, True, 1.328, 0.135805
2023/07/01 06:02:20.332, True, 1.011, 0.135729
2023/07/01 06:02:20.837, True, 0.993, 0.138399
2023/07/01 06:02:21.341, True, 0.995, 0.136721
2023/07/01 06:02:21.837, True, 1.011, 0.136492
2023/07/01 06:02:22.341, True, 1.326, 0.139010
2023/07/01 06:02:22.845, True, 0.995, 0.136416
2023/07/01 06:02:23.349, True, 0.995, 0.137942
2023/07/01 06:02:23.845, True, 1.011, 0.138552
2023/07/01 06:02:24.348, True, 0.995, 0.136339
2023/07/01 06:02:24.853, True, 0.995, 0.137560
2023/07/01 06:02:25.349, True, 1.011, 0.136873
2023/07/01 06:02:25.853, True, 0.995, 0.137407
2023/07/01 06:02:26.356, True, 0.995, 0.137865
2023/07/01 06:02:26.853, True, 1.348, 0.135119
2023/07/01 06:02:27.357, True, 0.995, 0.135729
2023/07/01 06:02:27.861, True, 0.995, 0.135119
2023/07/01 06:02:28.357, True, 1.011, 0.137407
2023/07/01 06:02:28.860, True, 0.995, 0.136187
2023/07/01 06:02:29.365, True, 0.995, 0.134432
2023/07/01 06:02:29.860, True, 1.011, 0.136034
2023/07/01 06:02:30.365, True, 0.994, 0.136416
2023/07/01 06:02:30.869, True, 1.326, 0.135882
2023/07/01 06:02:31.373, True, 0.663, 0.137255
2023/07/01 06:02:31.868, True, 1.011, 0.133822
2023/07/01 06:02:32.373, True, 1.326, 0.136950
2023/07/01 06:02:32.877, True, 0.663, 0.137026
2023/07/01 06:02:33.373, True, 1.011, 0.137331
2023/07/01 06:02:33.877, True, 0.995, 0.136873
2023/07/01 06:02:34.381, True, 0.995, 0.136416
2023/07/01 06:02:34.877, True, 1.349, 0.137865
2023/07/01 06:02:35.381, True, 0.994, 0.136645
2023/07/01 06:02:35.885, True, 0.995, 0.136568
2023/07/01 06:02:36.380, True, 1.013, 0.137255
2023/07/01 06:02:36.885, True, 0.993, 0.135805
2023/07/01 06:02:37.389, True, 0.995, 0.136721
2023/07/01 06:02:37.885, True, 1.011, 0.137331
2023/07/01 06:02:38.389, True, 0.995, 0.135805
2023/07/01 06:02:38.893, True, 0.995, 0.137636
2023/07/01 06:02:39.389, True, 1.011, 0.137713
2023/07/01 06:02:39.892, True, 0.996, 0.135958
2023/07/01 06:02:40.397, True, 1.327, 0.135958
2023/07/01 06:02:40.900, True, 0.994, 0.137407
2023/07/01 06:02:41.397, True, 1.009, 0.138399
2023/07/01 06:02:41.901, True, 0.995, 0.136873
2023/07/01 06:02:42.404, True, 0.995, 0.134737
2023/07/01 06:02:42.901, True, 1.010, 0.137026
2023/07/01 06:02:43.405, True, 0.995, 0.135119
2023/07/01 06:02:43.909, True, 0.995, 0.137636
2023/07/01 06:02:44.405, True, 1.011, 0.135195
2023/07/01 06:02:44.909, True, 0.995, 0.136721
2023/07/01 06:02:45.413, True, 0.994, 0.137331
2023/07/01 06:02:45.909, True, 1.011, 0.137179
2023/07/01 06:02:46.413, True, 1.328, 0.137865
2023/07/01 06:02:46.917, True, 0.994, 0.136187
2023/07/01 06:02:47.413, True, 1.011, 0.137331
2023/07/01 06:02:47.917, True, 0.994, 0.135729
2023/07/01 06:02:48.421, True, 0.995, 0.136187
2023/07/01 06:02:48.917, True, 1.011, 0.135729
2023/07/01 06:02:49.421, True, 0.994, 0.134127
2023/07/01 06:02:49.925, True, 0.995, 0.135424
2023/07/01 06:02:50.421, True, 1.011, 0.136110
2023/07/01 06:02:50.924, True, 0.994, 0.135271
2023/07/01 06:02:51.420, True, 1.011, 0.135500
2023/07/01 06:02:51.924, True, 0.995, 0.135271
2023/07/01 06:02:52.429, True, 1.326, 0.135195
2023/07/01 06:02:52.932, True, 0.996, 0.137865
2023/07/01 06:02:53.428, True, 1.011, 0.135348
2023/07/01 06:02:53.933, True, 0.994, 0.136492
2023/07/01 06:02:54.436, True, 0.996, 0.136339
2023/07/01 06:02:54.932, True, 1.010, 0.135119
2023/07/01 06:02:55.436, True, 1.326, 0.135576
2023/07/01 06:02:55.941, True, 0.996, 0.135653
2023/07/01 06:02:56.436, True, 1.009, 0.132448
2023/07/01 06:02:56.940, True, 0.995, 0.136263
2023/07/01 06:02:57.444, True, 0.997, 0.137255
2023/07/01 06:02:57.941, True, 1.011, 0.137179
2023/07/01 06:02:58.444, True, 0.993, 0.139086
2023/07/01 06:02:58.949, True, 1.329, 0.137407
2023/07/01 06:02:59.444, True, 1.011, 0.137102
2023/07/01 06:02:59.949, True, 0.995, 0.136034
2023/07/01 06:03:00.453, True, 0.993, 0.136797
2023/07/01 06:03:00.957, True, 0.995, 0.135653
2023/07/01 06:03:01.453, True, 1.012, 0.135348
2023/07/01 06:03:01.957, True, 0.993, 0.135729
2023/07/01 06:03:02.452, True, 1.012, 0.136797
2023/07/01 06:03:02.957, True, 0.994, 0.135882
2023/07/01 06:03:03.461, True, 1.327, 0.133593
2023/07/01 06:03:03.957, True, 0.674, 0.135653
2023/07/01 06:03:04.461, True, 0.995, 0.136187
2023/07/01 06:03:04.965, True, 1.327, 0.135576
2023/07/01 06:03:05.469, True, 0.994, 0.134127
2023/07/01 06:03:05.965, True, 1.011, 0.135805
2023/07/01 06:03:06.469, True, 0.996, 0.140917
2023/07/01 06:03:06.965, True, 1.011, 0.136950
2023/07/01 06:03:07.468, True, 0.993, 0.137179
2023/07/01 06:03:07.973, True, 0.995, 0.137026
2023/07/01 06:03:08.477, True, 0.995, 0.136568
2023/07/01 06:03:08.973, True, 1.011, 0.135195
2023/07/01 06:03:09.477, True, 0.995, 0.134356
2023/07/01 06:03:09.981, True, 0.995, 0.135271
2023/07/01 06:03:10.477, True, 1.012, 0.136873
2023/07/01 06:03:10.981, True, 0.994, 0.135958
2023/07/01 06:03:11.485, True, 0.995, 0.134737
2023/07/01 06:03:11.981, True, 1.011, 0.135195
2023/07/01 06:03:12.484, True, 0.995, 0.136034
2023/07/01 06:03:12.989, True, 0.995, 0.136263
2023/07/01 06:03:13.485, True, 1.011, 0.136034
2023/07/01 06:03:13.989, True, 0.994, 0.136950
2023/07/01 06:03:14.493, True, 0.995, 0.135576
2023/07/01 06:03:14.989, True, 1.348, 0.137255
2023/07/01 06:03:15.493, True, 0.995, 0.135424
2023/07/01 06:03:15.989, True, 1.011, 0.135500
2023/07/01 06:03:16.493, True, 0.996, 0.136339
2023/07/01 06:03:16.997, True, 0.994, 0.136034
2023/07/01 06:03:17.492, True, 1.011, 0.134737
2023/07/01 06:03:17.997, True, 0.995, 0.137407
2023/07/01 06:03:18.501, True, 0.995, 0.135500
2023/07/01 06:03:18.997, True, 1.011, 0.136492
2023/07/01 06:03:19.501, True, 0.995, 0.137865
2023/07/01 06:03:20.005, True, 0.995, 0.135653
2023/07/01 06:03:20.501, True, 1.011, 0.135958
2023/07/01 06:03:21.004, True, 1.326, 0.135805
2023/07/01 06:03:21.509, True, 0.995, 0.135348
2023/07/01 06:03:22.005, True, 1.011, 0.135882
2023/07/01 06:03:22.509, True, 0.994, 0.135424
2023/07/01 06:03:23.012, True, 0.995, 0.133898
2023/07/01 06:03:23.509, True, 1.012, 0.134737
2023/07/01 06:03:24.013, True, 0.994, 0.134432
2023/07/01 06:03:24.517, True, 0.995, 0.135119
2023/07/01 06:03:25.012, True, 1.011, 0.135195
2023/07/01 06:03:25.517, True, 0.995, 0.137407
2023/07/01 06:03:26.013, True, 1.011, 0.135805
2023/07/01 06:03:26.517, True, 0.995, 0.133898
2023/07/01 06:03:27.021, True, 1.326, 0.137255
2023/07/01 06:03:27.517, True, 1.011, 0.136721
2023/07/01 06:03:28.021, True, 0.995, 0.134585
2023/07/01 06:03:28.525, True, 0.995, 0.136950
2023/07/01 06:03:29.021, True, 1.348, 0.135653
2023/07/01 06:03:29.524, True, 0.995, 0.136645
2023/07/01 06:03:30.021, True, 1.011, 0.137255
2023/07/01 06:03:30.525, True, 0.995, 0.135729
2023/07/01 06:03:31.028, True, 0.995, 0.137255
2023/07/01 06:03:31.524, True, 1.011, 0.135653
2023/07/01 06:03:32.029, True, 0.995, 0.137102
2023/07/01 06:03:32.533, True, 0.995, 0.134279
2023/07/01 06:03:33.029, True, 1.011, 0.134585
2023/07/01 06:03:33.532, True, 0.995, 0.134966
2023/07/01 06:03:34.037, True, 0.995, 0.136187
2023/07/01 06:03:34.533, True, 1.011, 0.134966
2023/07/01 06:03:35.037, True, 0.996, 0.135958
2023/07/01 06:03:35.533, True, 1.010, 0.134279
2023/07/01 06:03:36.037, True, 1.326, 0.134051
2023/07/01 06:03:36.541, True, 0.995, 0.135042
2023/07/01 06:03:37.037, True, 1.011, 0.136339
2023/07/01 06:03:37.541, True, 0.663, 0.135500
2023/07/01 06:03:38.044, True, 1.326, 0.134127
2023/07/01 06:03:38.541, True, 1.011, 0.136339
2023/07/01 06:03:39.045, True, 0.995, 0.132982
2023/07/01 06:03:39.549, True, 0.995, 0.134508
2023/07/01 06:03:40.045, True, 1.011, 0.135576
2023/07/01 06:03:40.549, True, 0.995, 0.135805
2023/07/01 06:03:41.053, True, 0.995, 0.135119
2023/07/01 06:03:41.557, True, 0.995, 0.134279
2023/07/01 06:03:42.052, True, 1.011, 0.136492
2023/07/01 06:03:42.557, True, 0.996, 0.132677
2023/07/01 06:03:43.061, True, 0.994, 0.136797
2023/07/01 06:03:43.557, True, 1.011, 0.138018
2023/07/01 06:03:44.061, True, 1.326, 0.134813
2023/07/01 06:03:44.565, True, 0.995, 0.134585
2023/07/01 06:03:45.068, True, 0.996, 0.135195
2023/07/01 06:03:45.565, True, 1.010, 0.135042
2023/07/01 06:03:46.069, True, 1.327, 0.135653
2023/07/01 06:03:46.565, True, 1.011, 0.136187
2023/07/01 06:03:47.069, True, 0.995, 0.133211
2023/07/01 06:03:47.573, True, 0.995, 0.136568
2023/07/01 06:03:48.069, True, 1.011, 0.135195
2023/07/01 06:03:48.572, True, 0.995, 0.136034
2023/07/01 06:03:49.069, True, 1.011, 0.136263
2023/07/01 06:03:49.573, True, 0.995, 0.134661
2023/07/01 06:03:50.077, True, 0.995, 0.136187
2023/07/01 06:03:50.581, True, 0.995, 0.134127
2023/07/01 06:03:51.077, True, 1.011, 0.135958
2023/07/01 06:03:51.581, True, 0.995, 0.136416
2023/07/01 06:03:52.085, True, 1.326, 0.133974
2023/07/01 06:03:52.581, True, 1.011, 0.134279
2023/07/01 06:03:53.085, True, 0.996, 0.135042
2023/07/01 06:03:53.589, True, 0.994, 0.133974
2023/07/01 06:03:54.085, True, 1.011, 0.134890
2023/07/01 06:03:54.589, True, 0.995, 0.135424
2023/07/01 06:03:55.092, True, 0.995, 0.138857
2023/07/01 06:03:55.589, True, 1.011, 0.135119
2023/07/01 06:03:56.093, True, 0.995, 0.134508
2023/07/01 06:03:56.589, True, 1.011, 0.135653
2023/07/01 06:03:57.093, True, 0.995, 0.135500
2023/07/01 06:03:57.597, True, 0.995, 0.135653
2023/07/01 06:03:58.093, True, 1.011, 0.134203
2023/07/01 06:03:58.597, True, 0.995, 0.135729
2023/07/01 06:03:59.101, True, 0.995, 0.136263
2023/07/01 06:03:59.604, True, 1.329, 0.135805
2023/07/01 06:04:00.101, True, 1.009, 0.136263
2023/07/01 06:04:00.605, True, 0.995, 0.132906
2023/07/01 06:04:01.101, True, 1.011, 0.135348
2023/07/01 06:04:01.605, True, 0.995, 0.133364
2023/07/01 06:04:02.109, True, 0.995, 0.136568
2023/07/01 06:04:02.605, True, 1.348, 0.135424
2023/07/01 06:04:03.109, True, 0.995, 0.135348
2023/07/01 06:04:03.612, True, 0.663, 0.133288
2023/07/01 06:04:04.109, True, 1.011, 0.133211
2023/07/01 06:04:04.613, True, 1.326, 0.135119
2023/07/01 06:04:05.117, True, 0.995, 0.135195
2023/07/01 06:04:05.613, True, 1.011, 0.135424
2023/07/01 06:04:06.117, True, 1.326, 0.135882
2023/07/01 06:04:06.621, True, 0.995, 0.133593
2023/07/01 06:04:07.117, True, 1.012, 0.134508
2023/07/01 06:04:07.621, True, 0.994, 0.135424
2023/07/01 06:04:08.117, True, 1.348, 0.134432
2023/07/01 06:04:08.621, True, 0.995, 0.135805
2023/07/01 06:04:09.125, True, 0.995, 0.136187
2023/07/01 06:04:09.621, True, 1.011, 0.135805
2023/07/01 06:04:10.125, True, 0.995, 0.134432
2023/07/01 06:04:10.629, True, 1.326, 0.137636
2023/07/01 06:04:11.125, True, 1.011, 0.135042
2023/07/01 06:04:11.629, True, 0.995, 0.134661